#timestamp,LO_Frequency,Hit 
1505509215.4,286047007.0,P
1505509235.2,286047004.0,N
1505509255.0,286047005.5,P
1505509255.9,286047005.5,P
1505509275.8,286046998.3,P
1505509295.6,286046998.3,N
1505509315.4,286047000.5,N
1505509335.3,286046998.6,N
1505509355.1,286047002.6,N
1505509356.0,286047002.6,N
1505509375.8,286047001.4,N
1505509395.7,286046998.4,N
1505509415.5,286046996.6,N
1505509435.3,286046998.7,N
1505509455.1,286046998.2,N
1505509475.9,286047000.0,N
1505509495.7,286047000.4,N
1505509515.5,286046999.5,N
1505509535.4,286046998.9,N
1505509555.2,286047000.7,N
1505509575.0,286046999.0,N
1505509575.9,286046999.0,N
1505509595.8,286046998.4,N
1505509615.6,286046996.6,N
1505509635.4,286046997.3,N
1505509655.3,286047001.2,N
1505509675.1,286047001.9,N
1505509676.0,286047001.9,N
1505509695.8,286047002.0,N
1505509715.7,286047004.3,N
1505509735.5,286046999.4,N
1505509755.3,286047000.9,N
1505509775.1,286046998.3,N
1505509795.9,286046999.3,N
1505509815.7,286047004.3,N
1505509835.5,286047005.7,N
1505509855.4,286047002.9,N
1505509875.2,286047005.3,N
1505509895.0,286047005.3,N
1505509895.9,286047005.3,N
1505509915.8,286047005.2,N
1505509935.6,286047007.0,N
1505509955.4,286047005.8,N
1505509975.3,286047004.9,N
1505509995.1,286047003.2,N
1505509996.0,286047003.2,N
1505510015.8,286047003.7,N
1505510035.7,286047004.6,N
1505510055.5,286047005.2,N
1505510075.3,286047009.2,P
1505510095.2,286047007.4,N
1505510115.9,286047005.1,N
1505510135.7,286047003.1,N
1505510155.6,286047004.4,N
1505510175.4,286047001.5,N
1505510195.2,286047006.0,N
1505510215.1,286047003.7,N
1505510216.0,286047003.7,N
1505510235.8,286047001.7,N
1505510255.6,286047009.1,P
1505510275.5,286047002.2,N
1505510295.3,286047006.0,N
1505510315.1,286047002.5,N
1505510335.9,286047000.6,N
1505510355.7,286047001.3,N
1505510375.5,286047000.1,N
1505510395.3,286047001.8,N
1505510415.2,286047001.8,N
1505510435.0,286047002.5,N
1505510435.9,286047002.5,N
1505510455.7,286047001.6,N
1505510475.6,286047005.5,N
1505510495.4,286047004.0,N
1505510515.2,286047006.0,N
1505510535.1,286047005.4,N
1505510536.0,286047005.4,N
1505510555.8,286047004.5,N
1505510575.6,286047004.2,N
1505510595.5,286047002.5,N
1505510615.3,286046998.8,N
1505510635.1,286046998.3,N
1505510655.9,286046998.2,N
1505510675.7,286047000.0,N
1505510695.5,286047000.8,N
1505510715.3,286047001.7,N
1505510735.2,286047001.4,N
1505510755.0,286047006.0,N
1505510755.9,286047006.0,N
1505510775.7,286047004.2,N
1505510795.6,286047001.4,N
1505510815.4,286047005.5,N
1505510835.2,286047006.9,N
1505510855.1,286047008.8,P
1505510856.0,286047008.8,N
1505510875.8,286047004.0,N
1505510895.6,286046999.8,N
1505510915.5,286046998.4,N
1505510935.3,286046999.5,N
1505510955.1,286046997.0,N
1505510975.9,286046999.4,N
1505510995.7,286047000.8,N
1505511015.5,286047000.2,N
1505511035.4,286047000.4,N
1505511055.2,286047000.6,N
1505511075.0,286047001.9,N
1505511075.9,286047001.9,N
1505511095.8,286047005.1,N
1505511115.6,286047003.6,N
1505511135.4,286047003.4,N
1505511155.2,286047003.1,N
1505511175.1,286047003.9,N
1505511176.0,286047003.9,N
1505511195.8,286047007.3,N
1505511215.6,286047005.6,N
1505511235.5,286047005.9,N
1505511255.3,286047004.8,N
1505511275.1,286047007.6,N
1505511295.9,286047003.8,N
1505511315.7,286047001.6,N
1505511335.5,286047000.4,N
1505511355.4,286047004.2,N
1505511375.2,286047005.7,N
1505511395.0,286047005.8,N
1505511395.9,286047005.8,N
1505511415.8,286047005.8,N
1505511435.6,286047004.8,N
1505511455.4,286047005.3,N
1505511475.2,286047003.6,N
1505511495.1,286047004.8,N
1505511496.0,286047004.8,N
1505511515.8,286047006.2,P
1505511535.7,286047002.8,N
1505511555.5,286047001.8,N
1505511575.3,286047000.4,N
1505511595.1,286047001.8,N
1505511615.9,286047002.0,N
1505511635.7,286047005.0,N
1505511655.5,286047005.0,N
1505511675.4,286047003.1,N
1505511695.2,286047005.4,P
1505511715.0,286047006.0,P
1505511715.9,286047006.0,P
1505511735.8,286047005.0,P
1505511755.6,286046996.6,P
1505511775.5,286046997.6,N
1505511795.3,286046997.9,N
1505511815.1,286046995.3,N
1505511835.8,286046996.1,N
1505511855.7,286046997.6,N
1505511875.5,286046996.2,N
1505511895.3,286046994.7,N
1505511915.2,286046996.4,N
1505511935.9,286046993.8,N
1505511955.7,286046999.5,N
1505511975.6,286046996.7,N
1505511995.4,286046998.5,N
1505512015.2,286046999.4,N
1505512035.1,286046998.9,N
1505512036.0,286046998.9,N
1505512055.8,286047002.5,N
1505512075.6,286047000.4,N
1505512095.4,286046998.1,N
1505512115.3,286047001.7,N
1505512135.1,286047002.5,N
1505512155.8,286047002.0,N
1505512175.7,286047001.5,N
1505512195.5,286047001.2,N
1505512215.3,286046999.6,N
1505512235.2,286046998.0,N
1505512255.9,286046999.4,N
1505512275.7,286046998.4,N
1505512295.6,286047001.0,N
1505512315.4,286046999.6,N
1505512335.2,286046997.2,N
1505512355.0,286046999.4,N
1505512356.0,286046999.4,N
1505512375.8,286047000.9,N
1505512395.6,286047000.1,N
1505512415.4,286047002.1,N
1505512435.3,286047001.3,N
1505512455.1,286047000.3,N
1505512475.8,286046998.1,N
1505512495.7,286047003.8,N
1505512515.5,286047001.5,N
1505512535.3,286047002.1,N
1505512555.2,286047004.1,N
1505512575.9,286047003.3,N
1505512595.7,286047003.9,N
1505512615.6,286047002.5,N
1505512635.4,286047005.6,P
1505512655.2,286047000.2,N
1505512675.1,286047003.6,N
1505512676.0,286047003.6,N
1505512695.8,286047003.6,N
1505512715.6,286047003.6,N
1505512735.5,286047002.8,N
1505512755.3,286047002.6,N
1505512775.1,286047000.1,N
1505512795.9,286047000.6,N
